星链-6360 (STARLINK-6360 )

导读

STARLINK-6360是美国SpaceX公司星链星座的第二代低轨互联网卫星,于2023年7月7日由猎鹰9号火箭发射入轨。作为星链大规模组网的组成部分,该卫星运行在近地轨道,配备霍尔推进器与高通量通信天线,依托自主避障技术保障运行安全,为全球提供高速低延迟卫星宽带互联网服务,支撑星链覆盖偏远地区及移动网络接入的服务目标。

基本信息
目录编号:
57235
目录名称:
STARLINK-6360
国际标识:
2023-094T
轨道中心:
EARTH
卫星名称:
星链-6360
卫星全名:
星链-6360 (STARLINK-6360 )
卫星状态:
在轨 (已飞行1073 天)
发射日期:
2023-07-07 UTC
国别 :
美国 (US)
星等 :
--
轨道信息
数据来源 国际轨道数据 AOE轨道数据
星历时间 2026-06-14T17:09:25+0800
11小时前
查看轨道信息
2026-06-11T06:00:00+0800
3天前
查看轨道信息
半长轴 6861.205km 6861.147km
偏心率 0.0002064 0.0001377
轨道倾角 43.003° 42.992°
近地点辐角 271.624° 180.248°
升交点赤经 204.622° 224.183°
平近点角 88.438° 183.233°
近地点 481.651km 482.065km
远地点 484.485km 483.955km
周期 94.267分钟 94.266分钟
每日圈数 15.27574 15.275931
详细信息
固有亮度:
5
最大亮度:
2.4
卫星平台:
Starlink v1.5
覆盖范围:
全球
运营商:
太空探索技术公司
运营商所在国:
美国
制造商(研发单位):
太空探索技术公司
制造商所在国:
美国
使用方式:
暂无
卫星简介
星链(Starlink)计划是由太空探索技术公司(SpaceX)提出的一个巨型低轨卫星互联网星座项目,计划在2019年至2024年间在太空搭建由约1.2万颗卫星组成的“星链”网络,其中1584颗将部署在地球上空550千米处的近地轨道,并从2020年开始工作。该卫星仍在工作。
2D轨道图
3D轨道图
轨道高度分析图
轨道倾角分析图
轨道综合分析图
查看轨道综合分析图